Regional Weather Roundup
Issued by NWS Sterling, VA

Home | Current Version | Previous Version | Text Only | Print | Product List | Glossary On
Versions: 1 2 3 4 5 6 7 8 9 10 11 12 13 14 15 16 17 18 19 20 21 22 23 24 25 26 27 28 29 30 31 32 33 34 35 36 37 38 39 40 41 42 43 44 45 46 47 48 49 50
000
ASUS41 KLWX 282211
RWRLWX

REGIONAL WEATHER ROUNDUP
NATIONAL WEATHER SERVICE BALTIMORE MD/WASHINGTON DC
600 PM EDT THU JUL 28 2016

Note: "FAIR" indicates few or no clouds below 12,000 feet
with no significant weather and/or obstructions to visibility.
 TC=TEMPERATURE CELSIUS

 * =Non NWS site. Station does not report precipitation (e.g. rain,
    snow, etc.), thunder, or fog.

DCZ001-MDZ009-015-VAZ040>042-051-053>054-282300-
WASHINGTON METRO

CITY           SKY/WX    TMP DP  RH WIND       PRES   REMARKS
WASHINGTON NAT CLOUDY    81  73  76 NE10      29.82F
DULLES         LGT RAIN  77  74  90 N10       29.84F
ANDREWS AFB    LGT RAIN  78  72  83 N14       29.81S
FT BELVOIR     FAIR      83  71  68 VRB6      29.81R
QUANTICO       PTSUNNY   85  72  65 N13       29.80S THUNDER HX  91
LEESBURG*      TSTM      77  77 100 N9G16     29.86F
MANASSAS*      SUNNY     81  73  78 N12       29.83F
GAITHERSBURG*  CLOUDY    73  70  88 NE5       29.89F

$$

MDZ006>007-011-014-282300-
BALTIMORE METRO

CITY           SKY/WX    TMP DP  RH WIND       PRES   REMARKS
BWI AIRPORT    RAIN      75  73  93 NE10      29.85F FOG
MD SCIENCE CTR   N/A     76  72  87 MISG      29.86R
MARTIN STATE   CLOUDY    77  77 100 NE5       29.87F
ANNAPOLIS      LGT RAIN  77  74  90 NE13      29.84F
FORT MEADE*    CLOUDY    73  72  94 N6        29.88S

$$

MDZ012-015-019>023-282300-
MARYLAND EASTERN SHORE

CITY           SKY/WX    TMP DP  RH WIND       PRES   REMARKS
OCEAN CITY       N/A    N/A N/A N/A MISG      29.84F
SALISBURY      NOT AVBL
BAY BRIDGE AP* TSTM      73  73 100 E8        29.85F FOG
CAMBRIDGE*     PTSUNNY   84  73  70 E10       29.79F HX  91
EASTON*        PTSUNNY   84  77  79 N21       29.89R HX  94

$$

MDZ017>025-282300-
SOUTHERN MARYLAND

CITY           SKY/WX    TMP DP  RH WIND       PRES   REMARKS
PATUXENT RIVER TSTM      81  75  82 SE3       29.77F FOG
ST INIGOES     TSTM      79  74  84 N5        29.76F
LEONARDTOWN*   CLOUDY    79  72  78 E12G20    29.78F VSB 3/4

$$

MDZ003>005-282300-
NORTH CENTRAL MARYLAND

CITY           SKY/WX    TMP DP  RH WIND       PRES   REMARKS
FREDERICK*     PTSUNNY   79  75  89 CALM      29.89R
HAGERSTOWN APT CLOUDY    78  67  68 E3        29.88R

$$

MDZ501>502-282300-
WESTERN MARYLAND

CITY           SKY/WX    TMP DP  RH WIND       PRES   REMARKS
OAKLAND*       FOG       64  64 100 N3        30.00S VSB 1/2
CUMBERLAND*    PTSUNNY   75  72  88 CALM      29.94R

$$

VAZ025>031-282300-
SHENANDOAH VALLEY

CITY           SKY/WX    TMP DP  RH WIND       PRES   REMARKS
WINCHESTER*    LGT RAIN  73  72  94 NW3       29.89S
FRONT ROYAL*   CLOUDY    72  72 100 CALM      29.88S
LURAY*         NOT AVBL
NEW MARKET*    MOCLDY    74  69  85 N7        29.86S
STAUNTON*      CLOUDY    78  71  76 N12       29.87S
WAYNESBORO*    FAIR      86  72  63 SW3       29.86F HX  92

$$

WVZ021-048>050-054>055-282300-
EASTERN WEST VIRGINIA PANHANDLE

CITY           SKY/WX    TMP DP  RH WIND       PRES   REMARKS
MARTINSBURG    LGT RAIN  75  72  90 S3        29.89R
PETERSBURG*    HVY RAIN  72  71  98 CALM      29.92S

$$

VAZ036>039-050-282300-
CENTRAL FOOTHILLS

CITY           SKY/WX    TMP DP  RH WIND       PRES   REMARKS
CHARLOTTESVILL FAIR      95  71  45 SW7       29.79F HX 102
CULPEPER*      PTSUNNY   81  75  81 N6        29.84R
ORANGE*          N/A     82  73  74 N8        29.83S
GORDONSVILLE*  MOCLDY    93  77  58 SE3       29.78F HX 106
WARRENTON*     FAIR      84  69  59 N13       29.83S

$$

VAZ055>057-282300-
NORTH AND CENTRAL PIEDMONT

CITY           SKY/WX    TMP DP  RH WIND       PRES   REMARKS
FREDERICKSBRG* RAIN      91  76  62 W10       29.78S HX 102
STAFFORD*      FAIR      84  71  64 N8        29.84R

$$

NCZ024-NYZ072-PAZ021-071-VAZ022-071-282300-
OTHER REGIONAL OBSERVATIONS

CITY           SKY/WX    TMP DP  RH WIND       PRES   REMARKS
NEW YORK CITY  PTSUNNY   83  69  62 VRB6      29.90R
PHILADELPHIA   LGT RAIN  75  72  90 VRB5      29.90F
PITTSBURGH     CLOUDY    72  66  81 S7        29.91S
ROANOKE        PTSUNNY   83  74  74 CALM      29.88F
RICHMOND       PTSUNNY   92  77  61 SW15      29.77F HX 105
RALEIGH        MOSUNNY   95  72  47 W10G21    29.83S HX 103

$$

ANZ530>537-282300-
MARINE OBSERVATIONS

STATION/POSITION TIME  TEMP    WIND        PRES
                       AIR SEA DIR/SP/G
                 (UTC) (F)     (DEG/KT/KT) (MB)
THOMAS PT LIGHT  2200   75 85   40/ 12/ 16 1011.8R
BALT KEY BRIDGE  2148   76      20/  9/ 11   N/A
COVE POINT       2148   84     110/ 12/ 13   N/A
LEWISETTA        2148   92 90  210/ 13/ 17   N/A
SOLOMONS ISLAND  2148   83 87   70/ 11/ 14   N/A
PINEY POINT      2142          100/  8/ 10   N/A

$$




USA.gov is the U.S. government's official web portal to all federal, state and local government web resources and services.